Terminal Aerodrome Forecast
Issued by NWS

Home | Current Version | Previous Version | Text Only | Print | Product List | Glossary On
Versions: 1 2 3 4 5 6 7 8 9 10 11 12 13 14 15 16 17
000
FTUS41 KILN 280531
TAFLCK
TAF
KLCK 280531Z 2806/2906 15002KT P6SM SCT050 BKN150
     FM281400 21007KT P6SM BKN035
     FM281600 21008KT P6SM VCSH BKN035
     FM281900 21010KT P6SM VCTS BKN040CB
     FM282300 22004KT P6SM FEW050 BKN250=

USA.gov is the U.S. government's official web portal to all federal, state and local government web resources and services.